Regional Weather Roundup
Issued by NWS Albany, NY

Home | Current Version | Previous Version | Text Only | Print | Product List | Glossary On
Versions: 1 2 3 4 5 6 7 8 9 10 11 12 13 14 15 16 17 18 19 20 21 22 23 24 25 26 27 28 29 30 31 32 33 34 35 36 37 38 39 40 41 42 43 44 45 46 47 48 49 50
000
ASUS41 KALY 310510
RWRALY

NEW YORK STATE HOURLY WEATHER ROUNDUP
NATIONAL WEATHER SERVICE ALBANY NY
100 AM EDT FRI JUL 31 2015

NOTE: "FAIR" INDICATES FEW OR NO CLOUDS BELOW 12,000 FEET WITH NO
SIGNIFICANT WEATHER AND/OR NO OBSTRUCTIONS TO VISIBILITY.

NYZ032-033-038>043-046>054-057>066-NYZ062>081-310600-
EAST


CITY           SKY/WX    TMP DP  RH WIND       PRES   REMARKS
ALBANY         PTCLDY    70  62  76 SW3       29.82S
GLENS FALLS    CLEAR     71  57  61 W5        29.80S
POUGHKEEPSIE   CLEAR     70  68  93 CALM      29.83S FOG
NEWBURGH       CLEAR     68  68 100 W7        29.87R
MONTGOMERY     CLEAR     69  63  81 W5        29.86R
WHITE PLAINS   CLEAR     74  72  93 W3        29.84S FOG
ISLIP          PTCLDY    74  73  97 W3        29.82S
NEW YORK CITY  PTCLDY    78  72  81 SW3       29.83S
CENTRAL PARK   PTCLDY    77  72  84 VRB3      29.87S HAZE
$$

NYZ005>009-017-018-044>046-055-056-310600-
CENTRAL


CITY           SKY/WX    TMP DP  RH WIND       PRES   REMARKS
FULTON         CLEAR     70  61  73 SW6       29.84S
SYRACUSE       MOCLDY    73  61  65 SW12      29.84S
ROME           PTCLDY    67  61  81 CALM      29.85S
ELMIRA         CLEAR     60  58  92 SW3       29.91S
BINGHAMTON     CLEAR     66  56  70 W8        29.92F
MONTICELLO     CLEAR     64  61  88 W7        29.93R
$$

NYZ026>034-041>043-310600-
NORTH


CITY           SKY/WX    TMP DP  RH WIND       PRES   REMARKS
WATERTOWN      PTCLDY    69  64  84 S6        29.80F
FORT DRUM      NOT AVBL
MASSENA        CLEAR     67  57  70 SW7       29.75S
SARANAC LAKE   CLEAR     64  56  75 W5        29.82S
PLATTSBURGH    CLEAR     71  59  65 CALM      29.74R
$$

NYZ001>004-010>016-019>021-310600-
WEST


CITY           SKY/WX    TMP DP  RH WIND       PRES   REMARKS
NIAGARA FALLS  CLEAR     69  62  78 W9        29.87R
BUFFALO        PTCLDY    73  64  73 SW8       29.88S
DUNKIRK        CLEAR     69  65  86 SW7       29.91S
JAMESTOWN      PTCLDY    64  57  77 W9        29.98R
WELLSVILLE     PTCLDY    66  54  65 MISG      29.99S
ROCHESTER      CLEAR     68  63  84 SW8       29.86S
PENN YAN       CLEAR     67  60  78 SW7       29.90S
$$

             KEY
       WCI = WIND CHILL INDEX
       VSB = VISIBILITY
       HX  = HEAT INDEX
$$


USA.gov is the U.S. government's official web portal to all federal, state and local government web resources and services.